,,,PA_Meas_PMT16A,,PR_Meas_QMR101_102,,RH_Meas_QMH101,,SR_Meas_QMS101,,TA_Meas_QMH101,,GenWind,,GenWind,
date,time,status,PA,status,PR,status,RH,status,SR,status,TA,status,DirAvg,status,SpdAvg,
2010-03-02, 00:00:04,VALID,1005.67,VALID,0,VALID,95.5212,VALID,0,VALID,24.2486,VALID,46,VALID,0,
2010-03-02, 00:01:04,VALID,1005.65,VALID,0,VALID,95.5441,VALID,0,VALID,24.2681,VALID,46,VALID,0,
2010-03-02, 00:02:04,VALID,1005.61,VALID,0,VALID,95.5441,VALID,0.100563,VALID,24.2681,VALID,46,VALID,0,
2010-03-02, 00:03:04,VALID,1005.58,VALID,0,VALID,95.5517,VALID,0.100563,VALID,24.2468,VALID,46,VALID,0,
2010-03-02, 00:04:04,VALID,1005.57,VALID,0,VALID,95.5365,VALID,0,VALID,24.2468,VALID,46,VALID,0.401953,
2010-03-02, 00:05:04,VALID,1005.53,VALID,0,VALID,95.5441,VALID,0.100563,VALID,24.2486,VALID,46,VALID,0.352344,
2010-03-02, 00:06:04,VALID,1005.48,VALID,0,VALID,95.5517,VALID,0.100563,VALID,24.2273,VALID,46,VALID,0.326953,
2010-03-02, 00:07:04,VALID,1005.47,VALID,0,VALID,95.5441,VALID,0.100563,VALID,24.2486,VALID,46,VALID,0.38125,
2010-03-02, 00:08:04,VALID,1005.5,VALID,0,VALID,95.5365,VALID,0,VALID,24.2291,VALID,46,VALID,0.222266,
2010-03-02, 00:09:04,VALID,1005.48,VALID,0,VALID,95.5365,VALID,0,VALID,24.2078,VALID,46,VALID,0.208203,
2010-03-02, 00:10:04,VALID,1005.47,VALID,0,VALID,95.5365,VALID,0,VALID,24.2078,VALID,46,VALID,0.183984,
2010-03-02, 00:11:04,VALID,1005.51,VALID,0,VALID,95.5365,VALID,0,VALID,24.2078,VALID,46,VALID,0.215625,
2010-03-02, 00:12:04,VALID,1005.48,VALID,0,VALID,95.5365,VALID,0,VALID,24.2097,VALID,46,VALID,0,
2010-03-02, 00:13:04,VALID,1005.47,VALID,0,VALID,95.5212,VALID,0,VALID,24.2291,VALID,46,VALID,0.150781,
2010-03-02, 00:14:04,VALID,1005.42,VALID,0,VALID,95.5136,VALID,0,VALID,24.2681,VALID,46,VALID,0.146484,
2010-03-02, 00:15:04,VALID,1005.37,VALID,0,VALID,95.5288,VALID,0.100563,VALID,24.2486,VALID,46,VALID,0,
2010-03-02, 00:16:04,VALID,1005.33,VALID,0,VALID,95.5365,VALID,0,VALID,24.2291,VALID,46,VALID,0.276953,
2010-03-02, 00:17:04,VALID,1005.31,VALID,0,VALID,95.5288,VALID,0,VALID,24.2078,VALID,46,VALID,0,
2010-03-02, 00:18:04,VALID,1005.26,VALID,0,VALID,95.506,VALID,0,VALID,24.2291,VALID,46,VALID,0.583594,
2010-03-02, 00:19:04,VALID,1005.24,VALID,0,VALID,95.5441,VALID,0.100563,VALID,24.1884,VALID,46,VALID,0.499609,
2010-03-02, 00:20:04,VALID,1005.22,VALID,0,VALID,95.5288,VALID,0.100563,VALID,24.1884,VALID,46,VALID,0.213672,
2010-03-02, 00:21:04,VALID,1005.2,VALID,0,VALID,95.5212,VALID,0.100563,VALID,24.1902,VALID,46,VALID,0.182031,
2010-03-02, 00:22:04,VALID,1005.17,VALID,0,VALID,95.506,VALID,0.100563,VALID,24.1689,VALID,46,VALID,0.159766,
2010-03-02, 00:23:04,VALID,1005.17,VALID,0,VALID,95.5212,VALID,0,VALID,24.13,VALID,46,VALID,0.304297,
2010-03-02, 00:24:04,VALID,1005.15,VALID,0,VALID,95.5136,VALID,0,VALID,24.13,VALID,46,VALID,0.116016,
2010-03-02, 00:25:04,VALID,1005.16,VALID,0,VALID,95.4983,VALID,0.100563,VALID,24.13,VALID,46,VALID,0.350781,
2010-03-02, 00:26:04,VALID,1005.12,VALID,0,VALID,95.5136,VALID,0,VALID,24.1318,VALID,46,VALID,0.00664063,
2010-03-02, 00:27:04,VALID,1005.12,VALID,0,VALID,95.506,VALID,0,VALID,24.13,VALID,46,VALID,0.240625,
2010-03-02, 00:28:04,VALID,1005.08,VALID,0,VALID,95.5212,VALID,0,VALID,24.13,VALID,46,VALID,0.0148437,
2010-03-02, 00:29:04,VALID,1005.09,VALID,0,VALID,95.5365,VALID,0.100563,VALID,24.13,VALID,46,VALID,0.195703,
2010-03-02, 00:30:04,VALID,1005.1,VALID,0,VALID,95.5136,VALID,0.100563,VALID,24.1494,VALID,46,VALID,0,
2010-03-02, 00:31:04,VALID,1005.1,VALID,0,VALID,95.5212,VALID,0.100563,VALID,24.1494,VALID,46,VALID,0,
2010-03-02, 00:32:04,VALID,1005.06,VALID,0,VALID,95.5517,VALID,0,VALID,24.1707,VALID,46,VALID,0.310937,
2010-03-02, 00:33:04,VALID,1005.05,VALID,0,VALID,95.5517,VALID,0,VALID,24.1707,VALID,46,VALID,0.353906,
2010-03-02, 00:34:04,VALID,1005.02,VALID,0,VALID,95.5365,VALID,0,VALID,24.1513,VALID,46,VALID,0.000390625,
2010-03-02, 00:35:04,VALID,1005.01,VALID,0,VALID,95.5441,VALID,0.100563,VALID,24.0716,VALID,46,VALID,0.54375,
2010-03-02, 00:36:04,VALID,1005.02,VALID,0,VALID,95.5288,VALID,0,VALID,24.0539,VALID,46,VALID,0.448828,
2010-03-02, 00:37:04,VALID,1004.99,VALID,0,VALID,95.5288,VALID,0,VALID,24.0539,VALID,46,VALID,0.325391,
2010-03-02, 00:38:04,VALID,1004.99,VALID,0,VALID,95.5365,VALID,0,VALID,24.0132,VALID,46,VALID,0.1375,
2010-03-02, 00:39:04,VALID,1004.98,VALID,0,VALID,95.5288,VALID,0,VALID,24.0716,VALID,46,VALID,0,
2010-03-02, 00:40:04,VALID,1004.99,VALID,0,VALID,95.5517,VALID,0.100563,VALID,24.091,VALID,46,VALID,0.130469,
2010-03-02, 00:41:04,VALID,1005.02,VALID,0,VALID,95.5517,VALID,0,VALID,24.091,VALID,46,VALID,0.286328,
2010-03-02, 00:42:04,VALID,1005.05,VALID,0,VALID,95.5746,VALID,0,VALID,24.0716,VALID,46,VALID,0.119922,
2010-03-02, 00:43:04,VALID,1005.06,VALID,0,VALID,95.567,VALID,0,VALID,24.0326,VALID,46,VALID,0.117188,
2010-03-02, 00:44:04,VALID,1005.07,VALID,0,VALID,95.567,VALID,0,VALID,24.0345,VALID,46,VALID,0.00117188,
2010-03-02, 00:45:04,VALID,1005.08,VALID,0,VALID,95.5517,VALID,0.100563,VALID,24.015,VALID,46,VALID,0.342187,
2010-03-02, 00:46:04,VALID,1005.14,VALID,0,VALID,95.5517,VALID,0,VALID,23.9742,VALID,46,VALID,0.236328,
2010-03-02, 00:47:04,VALID,1005.12,VALID,0,VALID,95.5517,VALID,0.100563,VALID,23.9548,VALID,46,VALID,0.161328,
2010-03-02, 00:48:04,VALID,1005.15,VALID,0,VALID,95.567,VALID,0,VALID,23.9761,VALID,46,VALID,0.0699219,
2010-03-02, 00:49:04,VALID,1005.14,VALID,0,VALID,95.5517,VALID,0,VALID,23.9761,VALID,46,VALID,0.0105469,
2010-03-02, 00:50:04,VALID,1005.16,VALID,0,VALID,95.5441,VALID,0.100563,VALID,23.9353,VALID,46,VALID,0,
2010-03-02, 00:51:04,VALID,1005.13,VALID,0,VALID,95.5594,VALID,0.100563,VALID,23.9566,VALID,46,VALID,0,
2010-03-02, 00:52:04,VALID,1005.15,VALID,0,VALID,95.5441,VALID,0.100563,VALID,23.9353,VALID,46,VALID,0,
2010-03-02, 00:53:04,VALID,1005.13,VALID,0,VALID,95.5365,VALID,0.100563,VALID,23.9371,VALID,46,VALID,0,
2010-03-02, 00:54:04,VALID,1005.15,VALID,0,VALID,95.5517,VALID,0.100563,VALID,23.8964,VALID,46,VALID,0,
2010-03-02, 00:55:04,VALID,1005.15,VALID,0,VALID,95.5517,VALID,0,VALID,23.9177,VALID,46,VALID,0,
2010-03-02, 00:56:04,VALID,1005.16,VALID,0,VALID,95.567,VALID,0.100563,VALID,23.8982,VALID,46,VALID,0,
2010-03-02, 00:57:04,VALID,1005.16,VALID,0,VALID,95.567,VALID,0,VALID,23.8982,VALID,46,VALID,0.370703,
2010-03-02, 00:58:04,VALID,1005.14,VALID,0,VALID,95.567,VALID,0,VALID,23.8769,VALID,46,VALID,0.329297,
2010-03-02, 00:59:04,VALID,1005.13,VALID,0,VALID,95.5822,VALID,0,VALID,23.9,VALID,46,VALID,0.0402344,
2010-03-02, 01:00:04,VALID,1005.13,VALID,0,VALID,95.567,VALID,0,VALID,23.9,VALID,46,VALID,0.376953,
2010-03-02, 01:01:04,VALID,1005.09,VALID,0,VALID,95.5746,VALID,0,VALID,23.8593,VALID,46,VALID,0.537109,
2010-03-02, 01:02:04,VALID,1005.09,VALID,0,VALID,95.5975,VALID,0,VALID,23.838,VALID,46,VALID,0.532422,
2010-03-02, 01:03:04,VALID,1005.05,VALID,0,VALID,95.5822,VALID,0,VALID,23.8398,VALID,46,VALID,0.246484,
2010-03-02, 01:04:04,VALID,1005.04,VALID,0,VALID,95.6128,VALID,0,VALID,23.8611,VALID,46,VALID,0,
2010-03-02, 01:05:04,VALID,1005.04,VALID,0,VALID,95.5975,VALID,0,VALID,23.8398,VALID,46,VALID,0.361328,
2010-03-02, 01:06:04,VALID,1005.02,VALID,0,VALID,95.5975,VALID,0,VALID,23.8398,VALID,46,VALID,0.134766,
2010-03-02, 01:07:04,VALID,1005.03,VALID,0,VALID,95.6128,VALID,0,VALID,23.8398,VALID,46,VALID,0.209375,
2010-03-02, 01:08:04,VALID,1005.02,VALID,0,VALID,95.6128,VALID,0,VALID,23.8593,VALID,46,VALID,0.289844,
2010-03-02, 01:09:04,VALID,1004.99,VALID,0,VALID,95.628,VALID,0,VALID,23.8964,VALID,46,VALID,0.0378906,
2010-03-02, 01:10:04,VALID,1004.92,VALID,0,VALID,95.628,VALID,0,VALID,23.9371,VALID,46,VALID,0.00664063,
2010-03-02, 01:11:04,VALID,1004.91,VALID,0,VALID,95.6509,VALID,0,VALID,23.9566,VALID,38,VALID,0.0820313,
2010-03-02, 01:12:04,VALID,1004.86,VALID,0,VALID,95.6509,VALID,0,VALID,23.9955,VALID,38,VALID,0.182422,
2010-03-02, 01:13:04,VALID,1004.81,VALID,0,VALID,95.6738,VALID,0,VALID,23.9566,VALID,23,VALID,0.667578,
2010-03-02, 01:14:04,VALID,1004.78,VALID,0,VALID,95.6738,VALID,0,VALID,23.9177,VALID,7,VALID,0.417188,
2010-03-02, 01:15:04,VALID,1004.76,VALID,0,VALID,95.6585,VALID,0,VALID,23.9566,VALID,7,VALID,0.368359,
2010-03-02, 01:16:04,VALID,1004.74,VALID,0,VALID,95.689,VALID,0,VALID,23.9371,VALID,7,VALID,0.385156,
2010-03-02, 01:17:04,VALID,1004.74,VALID,0,VALID,95.6585,VALID,0,VALID,23.9195,VALID,5,VALID,0.665234,
2010-03-02, 01:18:04,VALID,1004.74,VALID,0,VALID,95.6509,VALID,0,VALID,23.9371,VALID,4,VALID,0.603906,
2010-03-02, 01:19:04,VALID,1004.76,VALID,0,VALID,95.6585,VALID,0,VALID,23.9371,VALID,3,VALID,0.685547,
2010-03-02, 01:20:04,VALID,1004.72,VALID,0,VALID,95.6509,VALID,0,VALID,23.9955,VALID,353,VALID,0.599219,
2010-03-02, 01:21:04,VALID,1004.75,VALID,0,VALID,95.6509,VALID,0,VALID,24.0521,VALID,343,VALID,0.656641,
2010-03-02, 01:22:04,VALID,1004.76,VALID,0,VALID,95.6509,VALID,0,VALID,24.1318,VALID,318,VALID,0.285937,
2010-03-02, 01:23:04,VALID,1004.77,VALID,0,VALID,95.6585,VALID,0,VALID,24.0929,VALID,318,VALID,0.273438,
2010-03-02, 01:24:04,VALID,1004.84,VALID,0,VALID,95.6662,VALID,0,VALID,24.0539,VALID,323,VALID,0.539063,
2010-03-02, 01:25:04,VALID,1004.84,VALID,0,VALID,95.6585,VALID,0,VALID,24.0539,VALID,344,VALID,0.272656,
2010-03-02, 01:26:04,VALID,1004.85,VALID,0,VALID,95.6204,VALID,0,VALID,24.0539,VALID,344,VALID,0,
2010-03-02, 01:27:04,VALID,1004.9,VALID,0,VALID,95.6128,VALID,0,VALID,24.0752,VALID,344,VALID,0,
2010-03-02, 01:28:04,VALID,1004.91,VALID,0,VALID,95.5975,VALID,0,VALID,24.0752,VALID,344,VALID,0.169922,
2010-03-02, 01:29:04,VALID,1004.93,VALID,0,VALID,95.5899,VALID,0,VALID,24.0734,VALID,344,VALID,0.015625,
2010-03-02, 01:30:04,VALID,1004.92,VALID,0,VALID,95.5822,VALID,0,VALID,24.0345,VALID,344,VALID,0.216797,
2010-03-02, 01:31:04,VALID,1004.94,VALID,0,VALID,95.5594,VALID,0,VALID,24.0345,VALID,344,VALID,0.231641,
2010-03-02, 01:32:04,VALID,1004.94,VALID,0,VALID,95.5517,VALID,0,VALID,24.015,VALID,344,VALID,0.147656,
2010-03-02, 01:33:04,VALID,1004.89,VALID,0,VALID,95.5288,VALID,0,VALID,24.0734,VALID,344,VALID,0.00429688,
2010-03-02, 01:34:04,VALID,1004.89,VALID,0,VALID,95.5365,VALID,0,VALID,24.0734,VALID,344,VALID,0,
2010-03-02, 01:35:04,VALID,1004.93,VALID,0,VALID,95.5212,VALID,0,VALID,24.0734,VALID,344,VALID,0.115234,
2010-03-02, 01:36:04,VALID,1004.91,VALID,0,VALID,95.5288,VALID,0,VALID,24.0929,VALID,348,VALID,0.249609,
2010-03-02, 01:37:04,VALID,1004.94,VALID,0,VALID,95.5136,VALID,0,VALID,24.1123,VALID,353,VALID,0.249219,
2010-03-02, 01:38:04,VALID,1004.96,VALID,0,VALID,95.4983,VALID,0,VALID,24.1513,VALID,353,VALID,0.297266,
2010-03-02, 01:39:04,VALID,1004.95,VALID,0,VALID,95.4983,VALID,0,VALID,24.1707,VALID,353,VALID,0,
2010-03-02, 01:40:04,VALID,1004.97,VALID,0,VALID,95.5136,VALID,0,VALID,24.1902,VALID,353,VALID,0.0484375,
2010-03-02, 01:41:04,VALID,1004.96,VALID,0,VALID,95.5136,VALID,0,VALID,24.1902,VALID,353,VALID,0.0285156,
2010-03-02, 01:42:04,VALID,1004.94,VALID,0,VALID,95.5212,VALID,0,VALID,24.2097,VALID,353,VALID,0,
2010-03-02, 01:43:04,VALID,1004.95,VALID,0,VALID,95.506,VALID,0,VALID,24.2291,VALID,353,VALID,0,
2010-03-02, 01:44:04,VALID,1004.93,VALID,0,VALID,95.5288,VALID,0,VALID,24.2291,VALID,353,VALID,0,
2010-03-02, 01:45:04,VALID,1004.93,VALID,0,VALID,95.5212,VALID,0,VALID,24.2273,VALID,353,VALID,0,
2010-03-02, 01:46:04,VALID,1004.97,VALID,0,VALID,95.506,VALID,0,VALID,24.2681,VALID,353,VALID,0,
2010-03-02, 01:47:04,VALID,1004.96,VALID,0,VALID,95.5365,VALID,0,VALID,24.2875,VALID,353,VALID,0.182812,
2010-03-02, 01:48:04,VALID,1005,VALID,0,VALID,95.5212,VALID,0,VALID,24.2681,VALID,353,VALID,0.451953,
2010-03-02, 01:49:04,VALID,1005.02,VALID,0,VALID,95.5288,VALID,0,VALID,24.2875,VALID,353,VALID,0.352734,
2010-03-02, 01:50:04,VALID,1005.05,VALID,0,VALID,95.5288,VALID,0,VALID,24.2681,VALID,2,VALID,0.341797,
2010-03-02, 01:51:04,VALID,1005.07,VALID,0,VALID,95.5441,VALID,0,VALID,24.2486,VALID,79,VALID,0.815234,
2010-03-02, 01:52:04,VALID,1005.05,VALID,0,VALID,95.5365,VALID,0,VALID,24.2699,VALID,83,VALID,0.499219,
2010-03-02, 01:53:04,VALID,1005.07,VALID,0,VALID,95.5288,VALID,0,VALID,24.2273,VALID,83,VALID,0.391016,
2010-03-02, 01:54:04,VALID,1005.07,VALID,0,VALID,95.506,VALID,0,VALID,24.2291,VALID,83,VALID,0.0617188,
2010-03-02, 01:55:04,VALID,1005.04,VALID,0,VALID,95.506,VALID,0,VALID,24.2486,VALID,83,VALID,0.127734,
2010-03-02, 01:56:04,VALID,1005.01,VALID,0,VALID,95.506,VALID,0,VALID,24.2468,VALID,79,VALID,0.350391,
2010-03-02, 01:57:04,VALID,1004.97,VALID,0,VALID,95.5212,VALID,0,VALID,24.2681,VALID,72,VALID,0.459375,
2010-03-02, 01:58:04,VALID,1004.97,VALID,0,VALID,95.4983,VALID,0,VALID,24.2681,VALID,72,VALID,0.412109,
2010-03-02, 01:59:04,VALID,1004.93,VALID,0,VALID,95.5136,VALID,0,VALID,24.2894,VALID,70,VALID,0.588672,
2010-03-02, 02:00:04,VALID,1004.92,VALID,0,VALID,95.5212,VALID,0,VALID,24.2875,VALID,44,VALID,0.623047,
2010-03-02, 02:01:04,VALID,1004.9,VALID,0,VALID,95.5212,VALID,0,VALID,24.2875,VALID,44,VALID,0.425,
2010-03-02, 02:02:04,VALID,1004.91,VALID,0,VALID,95.5212,VALID,0,VALID,24.307,VALID,44,VALID,0.379687,
2010-03-02, 02:03:04,VALID,1004.87,VALID,0,VALID,95.5212,VALID,0,VALID,24.3265,VALID,33,VALID,0.575781,
2010-03-02, 02:04:04,VALID,1004.86,VALID,0,VALID,95.5136,VALID,0,VALID,24.3265,VALID,27,VALID,0.445313,
2010-03-02, 02:05:04,VALID,1004.86,VALID,0,VALID,95.5212,VALID,0,VALID,24.3246,VALID,27,VALID,0.377734,
2010-03-02, 02:06:04,VALID,1004.81,VALID,0,VALID,95.5136,VALID,0,VALID,24.3459,VALID,27,VALID,0.351172,
2010-03-02, 02:07:04,VALID,1004.8,VALID,0,VALID,95.506,VALID,0,VALID,24.3849,VALID,27,VALID,0.389062,
2010-03-02, 02:08:04,VALID,1004.78,VALID,0,VALID,95.506,VALID,0,VALID,24.3849,VALID,27,VALID,0.224609,
2010-03-02, 02:09:04,VALID,1004.72,VALID,0,VALID,95.4907,VALID,0,VALID,24.4043,VALID,27,VALID,0.301562,
2010-03-02, 02:10:04,VALID,1004.73,VALID,0,VALID,95.4602,VALID,0,VALID,24.4238,VALID,27,VALID,0.388672,
2010-03-02, 02:11:04,VALID,1004.72,VALID,0,VALID,95.4373,VALID,0,VALID,24.4433,VALID,27,VALID,0.183594,
2010-03-02, 02:12:04,VALID,1004.7,VALID,0,VALID,95.422,VALID,0,VALID,24.4433,VALID,27,VALID,0.223438,
2010-03-02, 02:13:04,VALID,1004.72,VALID,0,VALID,95.4144,VALID,0,VALID,24.4646,VALID,27,VALID,0.246875,
2010-03-02, 02:14:04,VALID,1004.73,VALID,0,VALID,95.3991,VALID,0,VALID,24.4822,VALID,27,VALID,0.121875,
2010-03-02, 02:15:04,VALID,1004.74,VALID,0,VALID,95.3534,VALID,0.100563,VALID,24.4609,VALID,27,VALID,0.187109,
2010-03-02, 02:16:04,VALID,1004.73,VALID,0,VALID,95.3229,VALID,0,VALID,24.4628,VALID,27,VALID,0,
2010-03-02, 02:17:04,VALID,1004.75,VALID,0,VALID,95.3229,VALID,0.100563,VALID,24.4628,VALID,27,VALID,0,
2010-03-02, 02:18:04,VALID,1004.75,VALID,0,VALID,95.2771,VALID,0,VALID,24.4628,VALID,27,VALID,0,
2010-03-02, 02:19:04,VALID,1004.77,VALID,0,VALID,95.2618,VALID,0.100563,VALID,24.4628,VALID,27,VALID,0,
2010-03-02, 02:20:04,VALID,1004.75,VALID,0,VALID,95.2618,VALID,0.100563,VALID,24.4433,VALID,27,VALID,0.227734,
2010-03-02, 02:21:04,VALID,1004.75,VALID,0,VALID,95.2237,VALID,0,VALID,24.4025,VALID,27,VALID,0.288281,
2010-03-02, 02:22:04,VALID,1004.73,VALID,0,VALID,95.2161,VALID,0.100563,VALID,24.4025,VALID,27,VALID,0.126563,
2010-03-02, 02:23:04,VALID,1004.72,VALID,0,VALID,95.2008,VALID,0,VALID,24.4043,VALID,27,VALID,0.412891,
2010-03-02, 02:24:04,VALID,1004.68,VALID,0,VALID,95.1627,VALID,0,VALID,24.3636,VALID,27,VALID,0.442969,
2010-03-02, 02:25:04,VALID,1004.69,VALID,0,VALID,95.1779,VALID,0,VALID,24.3441,VALID,45,VALID,0.405859,
2010-03-02, 02:26:04,VALID,1004.65,VALID,0,VALID,95.155,VALID,0,VALID,24.3441,VALID,46,VALID,0.423828,
2010-03-02, 02:27:04,VALID,1004.64,VALID,0,VALID,95.1627,VALID,0,VALID,24.3246,VALID,46,VALID,0.349219,
2010-03-02, 02:28:04,VALID,1004.64,VALID,0,VALID,95.1627,VALID,0.100563,VALID,24.3052,VALID,46,VALID,0.365234,
2010-03-02, 02:29:04,VALID,1004.63,VALID,0,VALID,95.1321,VALID,0,VALID,24.3478,VALID,55,VALID,0.483984,
2010-03-02, 02:30:04,VALID,1004.62,VALID,0,VALID,95.155,VALID,0,VALID,24.3088,VALID,56,VALID,0.257813,
2010-03-02, 02:31:04,VALID,1004.64,VALID,0,VALID,95.1627,VALID,0,VALID,24.3088,VALID,56,VALID,0.406641,
2010-03-02, 02:32:04,VALID,1004.63,VALID,0,VALID,95.1398,VALID,0,VALID,24.2699,VALID,56,VALID,0.100391,
2010-03-02, 02:33:04,VALID,1004.68,VALID,0,VALID,95.1474,VALID,0,VALID,24.2291,VALID,56,VALID,0.0914062,
2010-03-02, 02:34:04,VALID,1004.67,VALID,0,VALID,95.1474,VALID,0,VALID,24.2291,VALID,56,VALID,0.0878906,
2010-03-02, 02:35:04,VALID,1004.69,VALID,0,VALID,95.1474,VALID,0,VALID,24.2291,VALID,56,VALID,0.1625,
2010-03-02, 02:36:04,VALID,1004.71,VALID,0,VALID,95.1627,VALID,0,VALID,24.1884,VALID,56,VALID,0,
2010-03-02, 02:37:04,VALID,1004.7,VALID,0,VALID,95.1703,VALID,0,VALID,24.1902,VALID,56,VALID,0,
2010-03-02, 02:38:04,VALID,1004.71,VALID,0,VALID,95.1627,VALID,0,VALID,24.1902,VALID,56,VALID,0,
2010-03-02, 02:39:04,VALID,1004.7,VALID,0,VALID,95.1779,VALID,0,VALID,24.1707,VALID,56,VALID,0.319531,
2010-03-02, 02:40:04,VALID,1004.69,VALID,0,VALID,95.1855,VALID,0,VALID,24.1513,VALID,56,VALID,0.601563,
2010-03-02, 02:41:04,VALID,1004.68,VALID,0,VALID,95.1855,VALID,0,VALID,24.1318,VALID,56,VALID,0.521094,
2010-03-02, 02:42:04,VALID,1004.67,VALID,0,VALID,95.1932,VALID,0,VALID,24.1123,VALID,37,VALID,0.721094,
2010-03-02, 02:43:04,VALID,1004.64,VALID,0,VALID,95.2161,VALID,0,VALID,24.1142,VALID,31,VALID,0.642578,
2010-03-02, 02:44:04,VALID,1004.63,VALID,0,VALID,95.2161,VALID,0,VALID,24.1142,VALID,27,VALID,0.667578,
2010-03-02, 02:45:04,VALID,1004.61,VALID,0,VALID,95.2161,VALID,0,VALID,24.0539,VALID,25,VALID,0.59375,
2010-03-02, 02:46:04,VALID,1004.59,VALID,0,VALID,95.2313,VALID,0,VALID,24.0345,VALID,25,VALID,0.467578,
2010-03-02, 02:47:04,VALID,1004.6,VALID,0,VALID,95.2313,VALID,0,VALID,24.015,VALID,25,VALID,0.340625,
2010-03-02, 02:48:04,VALID,1004.61,VALID,0,VALID,95.2542,VALID,0,VALID,23.9973,VALID,25,VALID,0.00429688,
2010-03-02, 02:49:04,VALID,1004.59,VALID,0,VALID,95.2542,VALID,0,VALID,23.9761,VALID,25,VALID,0,
2010-03-02, 02:50:04,VALID,1004.62,VALID,0,VALID,95.2771,VALID,0,VALID,23.9353,VALID,25,VALID,0,
2010-03-02, 02:51:04,VALID,1004.61,VALID,0,VALID,95.2695,VALID,0,VALID,23.9566,VALID,25,VALID,0,
2010-03-02, 02:52:04,VALID,1004.63,VALID,0,VALID,95.2771,VALID,0,VALID,23.9566,VALID,25,VALID,0,
2010-03-02, 02:53:04,VALID,1004.65,VALID,0,VALID,95.3152,VALID,0,VALID,23.9566,VALID,25,VALID,0,
2010-03-02, 02:54:04,VALID,1004.64,VALID,0,VALID,95.3534,VALID,0,VALID,23.9566,VALID,25,VALID,0,
2010-03-02, 02:55:04,VALID,1004.63,VALID,0,VALID,95.3534,VALID,0,VALID,23.9371,VALID,25,VALID,0,
2010-03-02, 02:56:04,VALID,1004.63,VALID,0,VALID,95.3381,VALID,0,VALID,23.9566,VALID,25,VALID,0,
2010-03-02, 02:57:04,VALID,1004.64,VALID,0,VALID,95.361,VALID,0,VALID,23.9159,VALID,25,VALID,0,
2010-03-02, 02:58:04,VALID,1004.65,VALID,0,VALID,95.3763,VALID,0,VALID,23.9371,VALID,25,VALID,0,
2010-03-02, 02:59:04,VALID,1004.68,VALID,0,VALID,95.3915,VALID,0,VALID,23.9779,VALID,25,VALID,0,
2010-03-02, 03:00:04,VALID,1004.66,VALID,0,VALID,95.4144,VALID,0,VALID,23.9371,VALID,25,VALID,0,
2010-03-02, 03:01:04,VALID,1004.65,VALID,0,VALID,95.422,VALID,0,VALID,23.9177,VALID,25,VALID,0,
2010-03-02, 03:02:04,VALID,1004.67,VALID,0,VALID,95.4068,VALID,0,VALID,23.9371,VALID,25,VALID,0,
2010-03-02, 03:03:04,VALID,1004.67,VALID,0,VALID,95.3991,VALID,0,VALID,23.9584,VALID,25,VALID,0,
2010-03-02, 03:04:04,VALID,1004.69,VALID,0,VALID,95.422,VALID,0,VALID,23.9177,VALID,25,VALID,0,
2010-03-02, 03:05:04,VALID,1004.7,VALID,0,VALID,95.4297,VALID,0,VALID,23.8982,VALID,25,VALID,0,
2010-03-02, 03:06:04,VALID,1004.73,VALID,0,VALID,95.4297,VALID,0,VALID,23.8982,VALID,25,VALID,0,
2010-03-02, 03:07:04,VALID,1004.77,VALID,0,VALID,95.4297,VALID,0,VALID,23.8787,VALID,25,VALID,0,
2010-03-02, 03:08:04,VALID,1004.81,VALID,0,VALID,95.4449,VALID,0,VALID,23.9,VALID,25,VALID,0,
2010-03-02, 03:09:04,VALID,1004.84,VALID,0,VALID,95.4373,VALID,0,VALID,23.8787,VALID,25,VALID,0,
2010-03-02, 03:10:04,VALID,1004.87,VALID,0,VALID,95.4602,VALID,0,VALID,23.8593,VALID,25,VALID,0,
2010-03-02, 03:11:04,VALID,1004.86,VALID,0,VALID,95.4526,VALID,0,VALID,23.8611,VALID,25,VALID,0,
2010-03-02, 03:12:04,VALID,1004.84,VALID,0,VALID,95.4449,VALID,0,VALID,23.8398,VALID,25,VALID,0,
2010-03-02, 03:13:04,VALID,1004.88,VALID,0,VALID,95.4602,VALID,0,VALID,23.8398,VALID,25,VALID,0,
2010-03-02, 03:14:04,VALID,1004.88,VALID,0,VALID,95.4526,VALID,0,VALID,23.8009,VALID,25,VALID,0,
2010-03-02, 03:15:04,VALID,1004.88,VALID,0,VALID,95.4678,VALID,0,VALID,23.8009,VALID,25,VALID,0,
2010-03-02, 03:16:04,VALID,1004.87,VALID,0,VALID,95.4678,VALID,0,VALID,23.8221,VALID,25,VALID,0,
2010-03-02, 03:17:04,VALID,1004.88,VALID,0,VALID,95.4678,VALID,0,VALID,23.7601,VALID,25,VALID,0,
2010-03-02, 03:18:04,VALID,1004.91,VALID,0,VALID,95.4754,VALID,0,VALID,23.8221,VALID,25,VALID,0,
2010-03-02, 03:19:04,VALID,1004.9,VALID,0,VALID,95.4983,VALID,0,VALID,23.8203,VALID,25,VALID,0,
2010-03-02, 03:20:04,VALID,1004.92,VALID,0,VALID,95.506,VALID,0,VALID,23.8398,VALID,25,VALID,0,
2010-03-02, 03:21:04,VALID,1004.93,VALID,0,VALID,95.4907,VALID,0.100563,VALID,23.8203,VALID,25,VALID,0,
2010-03-02, 03:22:04,VALID,1004.94,VALID,0,VALID,95.4983,VALID,0,VALID,23.8398,VALID,25,VALID,0,
2010-03-02, 03:23:04,VALID,1004.93,VALID,0,VALID,95.5212,VALID,0,VALID,23.8593,VALID,25,VALID,0,
2010-03-02, 03:24:04,VALID,1004.92,VALID,0,VALID,95.5365,VALID,0,VALID,23.8787,VALID,57,VALID,0,
2010-03-02, 03:25:04,VALID,1004.91,VALID,0,VALID,95.5288,VALID,0,VALID,23.8982,VALID,57,VALID,0,
2010-03-02, 03:26:04,VALID,1004.93,VALID,0,VALID,95.5441,VALID,0,VALID,23.8982,VALID,57,VALID,0,
2010-03-02, 03:27:04,VALID,1004.94,VALID,0,VALID,95.5517,VALID,0,VALID,23.8982,VALID,57,VALID,0,
2010-03-02, 03:28:04,VALID,1004.92,VALID,0,VALID,95.5517,VALID,0,VALID,23.8787,VALID,57,VALID,0,
2010-03-02, 03:29:04,VALID,1004.96,VALID,0,VALID,95.5441,VALID,0,VALID,23.8787,VALID,57,VALID,0,
2010-03-02, 03:30:04,VALID,1004.93,VALID,0,VALID,95.5441,VALID,0,VALID,23.8593,VALID,57,VALID,0,
2010-03-02, 03:31:04,VALID,1004.92,VALID,0,VALID,95.5594,VALID,0,VALID,23.8593,VALID,57,VALID,0,
2010-03-02, 03:32:04,VALID,1004.92,VALID,0,VALID,95.5517,VALID,0,VALID,23.8398,VALID,57,VALID,0,
2010-03-02, 03:33:04,VALID,1004.92,VALID,0,VALID,95.5441,VALID,0,VALID,23.8398,VALID,57,VALID,0,
2010-03-02, 03:34:04,VALID,1004.91,VALID,0,VALID,95.5288,VALID,0,VALID,23.8203,VALID,57,VALID,0,
2010-03-02, 03:35:04,VALID,1004.92,VALID,0,VALID,95.5365,VALID,0,VALID,23.8185,VALID,57,VALID,0,
2010-03-02, 03:36:04,VALID,1004.9,VALID,0,VALID,95.5441,VALID,0,VALID,23.8203,VALID,57,VALID,0,
2010-03-02, 03:37:04,VALID,1004.92,VALID,0,VALID,95.5517,VALID,0,VALID,23.8203,VALID,57,VALID,0,
2010-03-02, 03:38:04,VALID,1004.87,VALID,0,VALID,95.5441,VALID,0,VALID,23.8009,VALID,57,VALID,0,
2010-03-02, 03:39:04,VALID,1004.88,VALID,0,VALID,95.5441,VALID,0,VALID,23.7991,VALID,57,VALID,0,
2010-03-02, 03:40:04,VALID,1004.86,VALID,0,VALID,95.5441,VALID,0,VALID,23.8398,VALID,57,VALID,0,
2010-03-02, 03:41:04,VALID,1004.84,VALID,0,VALID,95.5822,VALID,0,VALID,23.8398,VALID,57,VALID,0,
2010-03-02, 03:42:04,VALID,1004.85,VALID,0,VALID,95.5594,VALID,0,VALID,23.8593,VALID,57,VALID,0,
2010-03-02, 03:43:04,VALID,1004.83,VALID,0,VALID,95.567,VALID,0,VALID,23.8593,VALID,57,VALID,0,
2010-03-02, 03:44:04,VALID,1004.81,VALID,0,VALID,95.567,VALID,0,VALID,23.8575,VALID,57,VALID,0,
2010-03-02, 03:45:04,VALID,1004.79,VALID,0,VALID,95.5746,VALID,0,VALID,23.8982,VALID,57,VALID,0,
2010-03-02, 03:46:04,VALID,1004.79,VALID,0,VALID,95.5822,VALID,0,VALID,23.9177,VALID,57,VALID,0,
2010-03-02, 03:47:04,VALID,1004.77,VALID,0,VALID,95.6051,VALID,0,VALID,23.9177,VALID,57,VALID,0,
2010-03-02, 03:48:04,VALID,1004.79,VALID,0,VALID,95.5822,VALID,0,VALID,23.9177,VALID,57,VALID,0,
2010-03-02, 03:49:04,VALID,1004.78,VALID,0,VALID,95.5899,VALID,0,VALID,23.9371,VALID,57,VALID,0,
2010-03-02, 03:50:04,VALID,1004.82,VALID,0,VALID,95.6051,VALID,0,VALID,23.9371,VALID,57,VALID,0,